User: anonymous   Login
Location: Unspecified
(0.0000°N, 0.0000°E)
Time: 00:18:04
(UTC+00:00)
Language:

USA 247 - Orbit

View from above orbital plane
View from above orbital plane
View from above satellite
View from above satellite

Ground track
Ground track

The orbit data is extracted from the following two-line orbital elements,

1 39462U 13072A   17327.75703824 0.00000000  00000-0  00000-0 0    06
2 39462 122.9966  40.4715 0002288 137.1270 222.8729 13.41419716    02
Epoch (UTC): 23 November 2017 18:10:08
Eccentricity: 0.0002288
inclination: 122.9966°
perigee height: 1102 km
apogee height: 1106 km
right ascension of ascending node: 40.4715°
argument of perigee: 137.1270°
revolutions per day: 13.41419716
mean anomaly at epoch: 222.8729°
orbit number at epoch: 0

The dashed part of the orbit path shows where the satellite is in the earth's shadow,  

DLR